Location: Newark
(7.1028°S, 35.3258°W)
Time: 07:41:34
(UTC+00:00)

Vanguard 3 - Pass Details

Date: 22 February 2020
Orbit: 508 x 3263 km, 33.4° (Epoch: 06 April)

Event Time Altitude Azimuth Distance (km) Brightness Sun altitude
Rises 20:46:13 0° 300° (WNW) 6,547 12.6 -1.5°
Reaches altitude 10° 20:50:11 10° 299° (WNW) 5,768 12.4 -2.5°
Maximum altitude 21:09:30 75° 215° (SW) 3,324 10.4 -7.2°
Drops below altitude 10° 21:27:35 10° 130° (SE) 5,435 11.0 -11.6°
Sets 21:31:14 0° 128° (SE) 6,170 11.3 -12.5°
